Simultaneous Nadir Overpasses (SNOs) Predictions

Prediction of SNOs near equator between NOAA-19 and NPP Satellite Orbit:

Table of predicted SNOs near equator for the next 14.0 days since TLE Epoch: 10/20/2012
Index Date (NOAA-19) Time (NOAA-19) NOAA-19 Lat,Lon Date (NPP) Time (NPP) NPP Lat,Lon Distance(km) Time Diff (sec)
1 10/22/2012 16:27:24 30.00, -48.55 10/22/2012 16:21:04 29.80, -49.53 97.51 380
2 10/22/2012 17:18:23 -29.96, 118.72 10/22/2012 17:11:45 -29.78, 117.80 90.39 398
3 10/22/2012 18:09:29 30.00, -74.07 10/22/2012 18:02:34 29.80, -74.90 83.88 415
4 10/22/2012 19:00:28 -29.96, 93.20 10/22/2012 18:53:15 -29.78, 92.43 76.72 433
5 10/22/2012 19:51:34 30.00, -99.59 10/22/2012 19:44:05 29.86,-100.30 70.14 449
6 10/22/2012 20:42:33 -29.96, 67.68 10/22/2012 20:34:46 -29.84, 67.04 63.02 467
7 10/22/2012 21:33:39 30.00,-125.11 10/22/2012 21:25:35 29.86,-125.67 56.49 484
8 10/22/2012 22:24:38 -29.95, 42.16 10/22/2012 22:16:16 -29.84, 41.66 49.31 502
9 10/22/2012 23:15:44 30.00,-150.63 10/22/2012 23:07:06 29.93,-151.06 42.81 518
10 10/23/2012 00:06:43 -29.95, 16.64 10/22/2012 23:57:47 -29.90, 16.27 35.73 536
11 10/23/2012 00:57:49 30.00,-176.15 10/23/2012 00:48:36 29.93,-176.44 29.11 553
12 10/23/2012 01:48:48 -29.95, -8.88 10/23/2012 01:39:17 -29.91, -9.11 21.93 571
13 10/23/2012 02:39:54 30.00, 158.33 10/23/2012 02:30:07 29.99, 158.17 15.69 587
14 10/23/2012 03:23:42 -4.92, -28.24 10/23/2012 03:13:42 -5.01, -28.44 24.09 600
